Regional Weather Roundup
Issued by NWS Little Rock, AR

Home | Current Version | Previous Version | Text Only | Print | Product List | Glossary Off
Versions: 1 2 3 4 5 6 7 8 9 10 11 12 13 14 15 16 17 18 19 20 21 22 23 24 25 26 27 28 29 30 31 32 33 34 35 36 37 38 39 40 41 42 43 44 45 46 47 48 49 50

000
ASUS44 KLZK 310505
RWRLZK

WEATHER ROUNDUP FOR ARKANSAS
NATIONAL WEATHER SERVICE LITTLE ROCK AR
1200 AM CDT THU JUL 31 2014

NOTE: "FAIR" INDICATES FEW OR NO CLOUDS BELOW 12,000 FEET WITH NO
SIGNIFICANT WEATHER AND/OR OBSTRUCTIONS TO VISIBILITY.

ARZ001-003-010-029-310600-
NORTHWEST ARKANSAS

CITY           SKY/WX    TMP DP  RH WIND       PRES   REMARKS
FAYETTEVILLE   CLOUDY    67  66  97 SW5       30.08S
FORT SMITH     LGT RAIN  69  67  93 E7        30.05R
HARRISON       CLOUDY    66  65  96 SE5       30.10S
BENTONVILLE    CLOUDY    66  63  88 CALM      30.09S
ROGERS         LGT RAIN  66  64  93 NE5       30.10S
SILOAM SPGS    CLOUDY    66  61  82 CALM      30.09S
HIGHFILL       LGT RAIN  66  66 100 CALM      30.08S
$$

ARZ004-005-016-310600-
NORTH CENTRAL ARKANSAS

CITY           SKY/WX    TMP DP  RH WIND       PRES   REMARKS
BATESVILLE     CLOUDY    66  66 100 CALM      30.08S
FLIPPIN        CLOUDY    66  66 100 CALM      30.09S
MTN HOME       CLOUDY    67  67 100 CALM      30.08S
$$

ARZ040-041-310600-
WEST CENTRAL ARKANSAS

CITY           SKY/WX    TMP DP  RH WIND       PRES   REMARKS
MENA           CLOUDY    68  66  94 E6        30.08F
MOUNT IDA      LGT RAIN  65  64  97 CALM      30.07R
$$

ARZ009-017-025-026-028-310600-
NORTHEAST ARKANSAS

CITY           SKY/WX    TMP DP  RH WIND       PRES   REMARKS
JONESBORO      CLOUDY    69  66  90 CALM      30.08R
NEWPORT        LGT RAIN  69  67  93 W3        30.09R
WALNUT RIDGE   CLOUDY    70  64  83 CALM      30.07R
BLYTHEVILLE    CLOUDY    71  67  87 CALM      30.07S
$$

ARZ022-023-033-042-044-310600-
CENTRAL ARKANSAS

CITY           SKY/WX    TMP DP  RH WIND       PRES   REMARKS
LITTLE ROCK    LGT RAIN  70  64  81 CALM      30.07S
N LITTLE ROCK  CLOUDY    67  66  98 W3        30.07S
JACKSONVILLE   DRIZZLE   68  67  97 NW2       30.07S
SEARCY         LGT RAIN  67  65  93 NW3       30.09R
HOT SPRINGS    LGT RAIN  67  65  93 CALM      30.09R
RUSSELLVILLE   LGT RAIN  69  67  93 CALM      30.08S FOG
CLINTON        CLOUDY    68  68 100 CALM      30.09R FOG
$$

ARZ036-310600-
EAST ARKANSAS

CITY           SKY/WX    TMP DP  RH WIND       PRES   REMARKS
WEST MEMPHIS   LGT RAIN  70  69  97 N5        30.07R
$$

ARZ050-053-066-070-073-310600-
SOUTHWEST ARKANSAS

CITY           SKY/WX    TMP DP  RH WIND       PRES   REMARKS
ARKADELPHIA    FAIR      69  67  93 CALM      30.08R
CAMDEN         CLOUDY    70  66  88 CALM      30.05F
TEXARKANA      CLOUDY    69  68  96 VRB5      30.04R
EL DORADO      MOCLDY    69  68  96 NE3       30.05S
DE QUEEN       CLOUDY    67  65  93 E7        30.03R
$$

ARZ056-057-069-310600-
SOUTHEAST ARKANSAS

CITY           SKY/WX    TMP DP  RH WIND       PRES   REMARKS
PINE BLUFF     CLOUDY    69  66  90 NE3       30.06F
STUTTGART      CLOUDY    70  64  83 N3        30.07F
MONTICELLO     CLOUDY    69  66  90 NE6       30.05F

$$




USA.gov is the U.S. government's official web portal to all federal, state and local government web resources and services.